GW4847 Weather Reports


time (UTC)temp
F
wind
direction
speed
knots
gust
knots
rain 1hr
in
rain 24hr
in
rain mn
in
humidity
%
barometer
mb
20260504204702 64 68 1.7 2.6 0.00 0.00 0.03 81 1025.0
20260504204202 65 32 1.7 3.5 0.00 0.00 0.03 80 1025.0
20260504203701 65 345 1.7 2.6 0.00 0.00 0.03 79 1025.0
20260504203203 66 131 0.9 1.7 0.00 0.00 0.03 78 1025.0
20260504202703 66 129 0.9 2.6 0.00 0.00 0.03 76 1025.0
20260504202204 67 73 0.0 0.0 0.00 0.00 0.03 76 1025.0
20260504201702 67 43 0.0 0.0 0.00 0.00 0.03 74 1025.0
20260504201203 67 62 0.0 0.0 0.00 0.00 0.03 74 1025.0
20260504200702 67 209 0.0 0.0 0.00 0.00 0.03 75 1025.0
20260504200204 67 20 0.9 1.7 0.00 0.00 0.03 76 1025.0
20260504195702 67 135 0.9 1.7 0.00 0.00 0.03 75 1025.0
20260504195204 67 76 0.9 1.7 0.00 0.00 0.03 75 1025.0
20260504194703 67 90 0.9 2.6 0.00 0.00 0.03 75 1025.0
20260504194203 67 78 0.9 2.6 0.00 0.00 0.03 75 1025.0
20260504193702 67 50 2.6 2.6 0.00 0.00 0.03 74 1025.0
20260504193204 67 67 1.7 4.3 0.00 0.00 0.03 75 1025.0
20260504192703 67 56 1.7 4.3 0.00 0.00 0.03 75 1024.0
20260504192208 67 62 1.7 3.5 0.00 0.00 0.03 75 1024.0
20260504191702 67 91 1.7 3.5 0.00 0.00 0.03 74 1024.0
20260504191204 67 17 1.7 3.5 0.00 0.00 0.03 74 1024.0
20260504190702 67 31 1.7 4.3 0.00 0.00 0.03 74 1024.0
20260504190204 67 333 1.7 4.3 0.00 0.00 0.03 73 1024.0
20260504185705 68 140 0.0 0.0 0.00 0.00 0.03 73 1025.0
20260504185203 68 3 1.7 3.5 0.00 0.00 0.03 73 1025.0
20260504184703 68 35 1.7 3.5 0.00 0.00 0.03 73 1025.0
20260504184203 66 345 1.7 3.5 0.00 0.00 0.03 72 1025.0
20260504183704 66 345 1.7 3.5 0.00 0.00 0.03 75 1025.0
20260504183202 66 2 1.7 3.5 0.00 0.00 0.03 75 1025.0
20260504182703 66 5 1.7 2.6 0.00 0.00 0.03 76 1025.0
20260504182204 66 133 0.9 2.6 0.00 0.00 0.03 73 1025.0
20260504181704 66 244 0.0 0.0 0.00 0.00 0.03 75 1025.0
20260504181203 65 35 1.7 3.5 0.00 0.00 0.03 77 1025.0
20260504180705 65 166 1.7 3.5 0.00 0.00 0.03 78 1025.0
20260504180204 65 16 3.5 3.5 0.00 0.00 0.03 77 1025.0
20260504175704 65 105 2.6 4.3 0.00 0.00 0.03 77 1025.0
20260504175204 66 62 1.7 2.6 0.00 0.00 0.03 75 1025.0
20260504174704 64 286 1.7 4.3 0.00 0.00 0.03 76 1025.0
20260504174204 64 52 1.7 4.3 0.00 0.00 0.03 78 1025.0
20260504173703 64 113 3.5 4.3 0.00 0.00 0.03 79 1025.0
20260504173203 63 99 2.6 4.3 0.00 0.00 0.03 79 1025.0
20260504172704 63 34 2.6 4.3 0.00 0.00 0.03 79 1025.0
20260504172203 63 92 2.6 3.5 0.00 0.00 0.03 79 1025.0
20260504171703 62 34 1.7 3.5 0.00 0.00 0.03 80 1025.0
20260504171203 62 109 1.7 3.5 0.00 0.00 0.03 81 1026.0
20260504170704 62 103 2.6 4.3 0.00 0.00 0.03 81 1026.0
20260504170202 62 28 2.6 4.3 0.00 0.00 0.03 81 1026.0
20260504160203 61 269 0.0 0.0 0.00 0.00 0.03 84 1027.0
20260504150704 60 31 3.5 4.3 0.00 0.00 0.03 84 1027.0
20260504150203 60 47 1.7 3.5 0.00 0.00 0.03 84 1027.0
20260504141207 61 5 2.6 2.6 0.00 0.00 0.03 81 1028.0
20260504140704 60 2 2.6 5.2 0.00 0.00 0.03 82 1028.0
20260504140203 60 38 3.5 5.2 0.00 0.00 0.03 82 1028.0
20260504130704 58 119 1.7 2.6 0.00 0.00 0.03 88 1028.0
20260504130203 57 352 2.6 4.3 0.01 0.00 0.03 87 1028.0
20260504120203 55 52 4.3 7.0 0.01 0.00 0.01 90 1027.0
20260504110704 54 92 3.5 5.2 0.00 0.00 0.00 90 1027.0
20260504110203 54 97 1.7 1.7 0.00 0.00 0.00 90 1027.0
20260504100204 53 64 1.7 3.5 0.00 0.00 0.00 91 1027.0
20260504081704 52 105 1.7 3.5 0.00 0.00 0.00 92 1026.0
20260504081204 52 53 1.7 3.5 0.00 0.00 0.00 92 1026.0
20260504080703 52 95 2.6 3.5 0.00 0.00 0.00 91 1025.0
20260504080203 52 71 0.9 2.6 0.00 0.00 0.00 91 1025.0
20260504070201 52 107 1.7 2.6 0.00 0.00 0.00 92 1025.0
20260504060207 53 29 1.7 3.5 0.00 0.00 0.00 91 1025.0
20260504050702 54 140 0.9 2.6 0.00 0.00 0.00 90 1027.0
20260504050203 54 41 0.9 2.6 0.00 0.00 0.00 89 1027.0
20260504045703 54 10 0.9 2.6 0.00 0.00 0.00 89 1027.0
20260504045202 54 46 1.7 4.3 0.00 0.00 0.00 89 1027.0
20260504044701 54 73 1.7 3.5 0.00 0.00 0.00 89 1027.0
20260504044202 54 35 2.6 2.6 0.00 0.00 0.00 89 1027.0
20260504043701 54 121 1.7 4.3 0.00 0.00 0.00 89 1027.0
20260504043202 54 74 1.7 3.5 0.00 0.00 0.00 89 1027.0
20260504042701 54 12 1.7 3.5 0.00 0.00 0.00 89 1027.0
20260504042202 54 54 1.7 3.5 0.00 0.00 0.00 89 1027.0
20260504041703 54 73 2.6 3.5 0.00 0.00 0.00 89 1027.0
20260504041202 54 56 2.6 6.1 0.00 0.00 0.00 89 1027.0
20260504040704 54 141 2.6 6.1 0.00 0.00 0.00 90 1027.0
20260504040202 54 14 4.3 6.1 0.00 0.00 0.00 90 1027.0
20260504035702 54 116 2.6 5.2 0.00 0.00 0.00 90 1027.0
20260504035201 54 108 3.5 5.2 0.00 0.00 0.00 90 1027.0
20260504034701 54 48 5.2 5.2 0.00 0.00 0.00 90 1027.0
20260504034201 54 61 3.5 4.3 0.00 0.00 0.00 90 1027.0
20260504033701 54 93 2.6 2.6 0.00 0.00 0.00 90 1027.0
20260504033201 53 108 2.6 5.2 0.00 0.00 0.00 90 1027.0
20260504032701 53 76 2.6 5.2 0.00 0.00 0.00 90 1027.0
20260504032203 53 52 2.6 3.5 0.00 0.00 0.00 90 1027.0
20260504031701 53 36 3.5 7.0 0.00 0.00 0.00 90 1027.0
20260504031203 53 73 1.7 3.5 0.00 0.00 0.00 90 1027.0
20260504030702 53 56 1.7 1.7 0.00 0.00 0.00 91 1027.0
20260504030201 53 144 2.6 4.3 0.00 0.00 0.03 91 1027.0
20260504025701 53 39 3.5 3.5 0.00 0.00 0.03 91 1027.0
20260504025201 53 52 2.6 3.5 0.00 0.00 0.03 91 1027.0
20260504024702 53 106 2.6 3.5 0.00 0.00 0.03 90 1027.0
20260504024201 53 99 4.3 6.1 0.00 0.00 0.03 90 1028.0
20260504023702 53 98 4.3 6.1 0.00 0.00 0.03 90 1028.0
20260504023201 53 67 5.2 6.1 0.00 0.00 0.03 89 1028.0
20260504022706 54 18 2.6 6.1 0.00 0.00 0.03 89 1028.0
20260504022203 54 6 2.6 6.1 0.00 0.00 0.03 89 1028.0
20260504021701 54 92 3.5 4.3 0.00 0.00 0.03 89 1028.0
20260504021203 54 120 2.6 4.3 0.00 0.00 0.03 89 1028.0
20260504020701 54 82 3.5 4.3 0.00 0.00 0.03 88 1028.0
20260504015701 53 115 4.3 6.1 0.00 0.00 0.03 89 1028.0
20260504015202 53 63 3.5 4.3 0.00 0.00 0.03 90 1028.0
20260504014701 53 123 0.9 2.6 0.00 0.00 0.03 90 1028.0
20260504014201 53 73 0.9 2.6 0.00 0.00 0.03 90 1028.0
20260504013701 53 118 0.0 0.0 0.00 0.00 0.03 90 1028.0
20260504013202 53 119 0.9 2.6 0.00 0.00 0.03 90 1028.0
20260504012701 53 72 0.9 1.7 0.00 0.00 0.03 89 1028.0
20260504012201 53 315 0.0 0.0 0.00 0.00 0.03 89 1028.0
20260504011701 53 272 0.9 1.7 0.00 0.00 0.03 89 1028.0
20260504011202 53 110 0.9 1.7 0.00 0.00 0.03 89 1028.0
20260504010702 53 113 0.0 0.0 0.00 0.00 0.03 89 1028.0
20260504010201 53 134 1.7 3.5 0.00 0.00 0.03 89 1028.0
20260504005701 53 85 2.6 3.5 0.00 0.00 0.03 89 1028.0
20260504004733 53 109 1.7 3.5 0.00 0.00 0.03 89 1028.0
20260504004201 53 112 2.6 2.6 0.00 0.00 0.03 89 1028.0
20260504003701 53 84 2.6 4.3 0.00 0.00 0.03 88 1028.0
20260504003202 53 43 2.6 3.5 0.00 0.00 0.03 88 1028.0
20260504002702 53 78 2.6 2.6 0.00 0.00 0.03 88 1028.0
20260504002201 53 85 1.7 4.3 0.00 0.00 0.03 88 1028.0
20260504001701 53 78 1.7 4.3 0.00 0.00 0.03 89 1028.0
20260504000701 53 71 0.0 0.0 0.00 0.00 0.03 89 1028.0
20260504000201 53 279 0.0 0.0 0.00 0.00 0.03 89 1028.0
20260503235701 53 115 0.0 0.0 0.00 0.00 0.03 88 1028.0
20260503235201 53 292 0.0 0.0 0.00 0.00 0.03 88 1028.0
20260503234701 53 16 0.0 0.0 0.00 0.00 0.03 88 1028.0
20260503234203 53 277 0.9 2.6 0.00 0.00 0.03 88 1028.0
20260503233701 53 213 0.0 0.0 0.00 0.00 0.03 88 1028.0
20260503233201 53 6 0.0 0.0 0.00 0.00 0.03 88 1028.0
20260503232701 53 115 0.9 2.6 0.00 0.00 0.03 89 1028.0
20260503232201 53 290 0.9 2.6 0.00 0.00 0.03 88 1028.0
20260503231701 52 70 0.9 2.6 0.00 0.00 0.03 88 1028.0
20260503231202 52 85 0.9 2.6 0.00 0.00 0.03 88 1028.0
20260503230702 52 100 0.9 1.7 0.00 0.00 0.03 88 1028.0
20260503230201 52 132 1.7 2.6 0.00 0.00 0.03 88 1028.0
20260503225701 52 199 0.9 1.7 0.00 0.00 0.03 88 1028.0
20260503225201 53 71 0.9 1.7 0.00 0.00 0.03 88 1028.0
20260503224701 53 291 0.9 1.7 0.00 0.00 0.03 88 1028.0
20260503224201 53 268 0.0 0.0 0.00 0.00 0.03 88 1028.0
20260503223701 52 12 0.9 1.7 0.00 0.00 0.03 88 1028.0
20260503223201 52 234 0.9 1.7 0.00 0.00 0.03 88 1028.0
20260503222701 52 56 0.9 1.7 0.00 0.00 0.03 88 1028.0
20260503222201 52 340 0.9 1.7 0.00 0.00 0.03 88 1028.0
20260503221701 52 134 0.9 1.7 0.00 0.00 0.03 88 1028.0
20260503221202 52 19 0.9 1.7 0.00 0.00 0.03 88 1028.0
20260503220701 52 132 1.7 2.6 0.00 0.00 0.03 88 1028.0
20260503220201 52 248 1.7 2.6 0.00 0.00 0.03 88 1027.0
20260503215701 52 109 1.7 1.7 0.00 0.00 0.03 88 1028.0
20260503215201 52 250 0.9 2.6 0.00 0.00 0.03 88 1027.0
20260503214702 52 111 0.9 2.6 0.00 0.00 0.03 88 1027.0
20260503214201 52 108 2.6 4.3 0.00 0.00 0.03 88 1027.0
20260503213702 52 73 2.6 4.3 0.00 0.00 0.03 88 1027.0
20260503213202 52 187 2.6 4.3 0.00 0.00 0.03 88 1027.0
20260503212701 52 130 0.9 1.7 0.00 0.00 0.03 88 1028.0
20260503212203 52 243 0.9 1.7 0.00 0.00 0.03 88 1028.0
20260503211701 52 320 0.9 1.7 0.00 0.00 0.03 88 1028.0
20260503211201 52 295 1.7 2.6 0.00 0.00 0.03 88 1027.0
20260503210212 52 211 1.7 1.7 0.00 0.00 0.03 88 1027.0
20260503205701 52 140 1.7 2.6 0.00 0.00 0.03 88 1027.0
20260503205201 52 106 1.7 2.6 0.00 0.00 0.03 88 1027.0